Regional Weather Roundup
Issued by NWS Bismarck, ND

Home | Current Version | Previous Version | Text Only | Print | Product List | Glossary Off
Versions: 1 2 3 4 5 6 7 8 9 10 11 12 13 14 15 16 17 18 19 20 21 22 23 24 25 26 27 28 29 30 31 32 33 34 35 36 37 38 39 40 41 42 43 44 45 46 47 48 49 50

000
ASUS43 KBIS 221710
RWRBIS

NWR BROADCAST TEXT
NATIONAL WEATHER SERVICE BISMARCK ND
1200 PM CDT TUE AUG 22 2017

NOTE: "FAIR" INDICATES FEW OR NO CLOUDS BELOW 12,000 FEET WITH NO
SIGNIFICANT WEATHER AND/OR OBSTRUCTIONS TO VISIBILITY.


CITY           SKY/WX    TMP DP  RH WIND       PRES   REMARKS
WILLISTON      SUNNY     73  38  27 S9        30.20F
MINOT          SUNNY     74  38  27 W12       30.17S
MINOT AFB      SUNNY     73  37  26 NW9G21    30.15F
BISMARCK       SUNNY     73  45  36 NW7       30.20F
DICKINSON      SUNNY     71  39  31 SW5       30.20F
GARRISON         N/A     71  38  29 NW9G23    30.19S
HETTINGER ARPT SUNNY     73  38  27 CALM      30.23F
JAMESTOWN      SUNNY     69  45  41 NW16G24   30.15S
CARRINGTON     FAIR      70  46  43 NW17      30.18S
HAZEN          FAIR      70  39  32 W9        30.21F
LINTON         FAIR      72  39  30 NW12      30.22S
MANDAN         FAIR      70  39  32 NW7G15    30.21S
RUGBY          FAIR      70  43  37 NW17      30.15S
STANLEY        FAIR      70  37  30 W9G16     30.22S
TIOGA          FAIR      70  34  26 NW12      30.21S
WATFORD CITY   FAIR      72  34  25 MISG      30.20F
$$

CITY           SKY/WX    TMP DP  RH WIND       PRES   REMARKS
GRAND FORKS    MOSUNNY   74  45  35 NW22      30.06R
GRAND FORKS AF SUNNY     73  43  33 NW12G22   30.08R
DEVILS LAKE    SUNNY     70  42  36 NW18G28   30.13S
FARGO          SUNNY     73  46  38 NW18G26   30.09S
CANDO          FAIR      72  41  33 NW17G26   30.15S
CAVALIER       FAIR      70  48  46 NW17G23   30.05S
GRAFTON        FAIR      72  46  40 NW22      30.07S
GWINNER        SUNNY     70  50  49 NW9G21    30.15S
LANGDON        FAIR      70  41  35 NW18G24   30.11R
ROLLA          FAIR      68  39  34 NW18G28   30.15S
WALHALLA       FAIR      70  70 100 NW20G26   30.06S
$$

CITY           SKY/WX    TMP DP  RH WIND       PRES   REMARKS
ABERDEEN       SUNNY     74  42  31 NW16G23   30.18S
MOBRIDGE       SUNNY     71  48  43 NW7       30.20
BUFFALO          N/A     76  41  28 VRB7      30.16F
RAPID CITY     SUNNY     76  45  33 S15       30.23F
GLASGOW        SUNNY     74  35  24 SE10G17   30.17F
SIDNEY         SUNNY     72  42  34 SE6       30.20F
WOLF POINT     SUNNY     76  36  23 E5        30.19F
GLENDIVE       SUNNY     73  35  25 VRB3      30.20F
MILES CITY     SUNNY     76  37  24 E6        30.16F
BAKER          SUNNY     75  35  23 E7        30.22F
$$

CITY           SKY/WX    TMP DP  RH WIND       PRES   REMARKS
BILLINGS       MOSUNNY   71  40  32 SW7       30.19F
GREAT FALLS    SUNNY     74  35  24 NW5       30.17S
REGINA         PTSUNNY   70  36  28 VRB3      30.16F
ESTEVAN        MOSUNNY   70  39  32 W7        30.18F
$$




USA.gov is the U.S. government's official web portal to all federal, state and local government web resources and services.